Regional Weather Roundup
Issued by NWS

Home | Current Version | Previous Version | Graphics & Text | Print | Product List | Glossary On
Versions: 1 2 3 4 5 6 7 8 9 10 11 12 13 14 15 16 17 18 19 20 21 22 23 24 25 26 27 28 29 30 31 32 33 34 35 36 37 38 39 40 41 42 43 44 45 46 47 48 49 50
000
ASUS43 KIND 202059
RWRIN

WEATHER ROUNDUP FOR INDIANA
NATIONAL WEATHER SERVICE INDIANAPOLIS IN
400 PM EST MON NOV 20 2017

NOTE: "FAIR" INDICATES FEW OR NO CLOUDS BELOW 12,000 FEET WITH NO
SIGNIFICANT WEATHER AND/OR OBSTRUCTIONS TO VISIBILITY.

* - STATION DOES NOT REPORT WEATHER SUCH AS PRECIPITATION OR FOG.

+ - STATION NOT QUALITY CONTROLLED BY THE NATIONAL WEATHER SERVICE.
    USE DATA WITH CAUTION...ESPECIALLY DEWPOINT AND RELATIVE
    HUMIDITY OBSERVATIONS.

INZ001>003-010>013-019-020-202200-
NORTHWEST INDIANA

CITY           SKY/WX    TMP DP  RH WIND       PRES   REMARKS
KNOX *+        SUNNY     50  32  50 SW18G25   29.87S
LA PORTE +     SUNNY     50  33  52 SW20G28   29.85F
MONTICELLO +   SUNNY     50  29  45 SW18      29.91F

$$

LMZ046-743>745-202200-
SOUTHERN LAKE MICHIGAN

STATION/POSITION TIME  TEMP    WIND        PRES    WAVE
                       AIR SEA DIR/SP/G            HT
                 (UTC) (F)     (DEG/KT/KT) (MB)    (FT)
BURNS HARBOR     2040   52     200/ 22/ 29 1010.2F
MICHIGAN CITY    2030   51     180/ 19/ 22   N/A

$$

INZ004-005-014>016-021>024-202200-
NORTH CENTRAL INDIANA

CITY           SKY/WX    TMP DP  RH WIND       PRES   REMARKS
ELKHART        SUNNY     50  30  46 MISG      29.85F
GOSHEN         SUNNY     49  28  44 S22G31    29.86F
PERU/GRISSOM   SUNNY     49  31  49 S15G25    29.93F
SOUTH BEND     SUNNY     50  31  48 SW14G25   29.86S
WARSAW +       SUNNY     50  30  46 S10G21    29.89F

$$

INZ006>009-017-018-025>027-202200-
NORTHEAST INDIANA

CITY           SKY/WX    TMP DP  RH WIND       PRES   REMARKS
AUBURN +       SUNNY     48  27  43 S14G24    29.92F
FORT WAYNE     MOSUNNY   48  31  51 S14       29.95S
KENDALLVILLE + SUNNY     47  29  49 SW23G31   29.89F

$$

INZ028-029-035-036-043>045-051>053-202200-
WEST CENTRAL INDIANA

CITY           SKY/WX    TMP DP  RH WIND       PRES   REMARKS
LAFAYETTE      SUNNY     50  30  46 SW13G21   29.93F
TERRE HAUTE    CLOUDY    49  28  44 S16       29.99F

$$

INZ030>032-037>040-046>048-054>057-064-065-202200-
CENTRAL INDIANA

CITY           SKY/WX    TMP DP  RH WIND       PRES   REMARKS
COLUMBUS       MOSUNNY   46  18  31 S17G23    30.05F
FRANKFORT +    SUNNY     50  31  49 SW16G25   29.96F
GREENWOOD *+   CLOUDY    52  26  36 S12       30.01F
INDIANAPOLIS   CLOUDY    49  25  39 S16       29.99F
-EAGLE CREEK   CLOUDY    50  23  34 S10G21    29.98F
KOKOMO +       SUNNY     49  29  46 S18G26    29.96F
MT COMFORT *+  CLOUDY    46  34  61 S12       30.01S
SHELBYVILLE    CLOUDY    48  26  42 S13       30.02F

$$

INZ033-034-041-042-049-050-058-059-202200-
EAST CENTRAL INDIANA

CITY           SKY/WX    TMP DP  RH WIND       PRES   REMARKS
MUNCIE         SUNNY     47  26  44 SW15G25   29.99F
RICHMOND +     SUNNY     43  28  56 S16       30.04F

$$

INZ060-061-067>069-081>083-085>088-202200-
SOUTHWEST INDIANA

CITY           SKY/WX    TMP DP  RH WIND       PRES   REMARKS
EVANSVILLE     SUNNY     51  27  39 S13       30.07F
HUNTINGBURG +  SUNNY     50  25  37 S10       30.07F

$$

INZ062-063-066-070>080-084-089>092-202200-
SOUTH CENTRAL AND SOUTHEAST INDIANA

CITY           SKY/WX    TMP DP  RH WIND       PRES   REMARKS
BLOOMINGTON    CLOUDY    50  23  34 S13       30.03F
MADISON *+     CLOUDY    46  23  39 S7        30.09F
SEYMOUR +      CLOUDY    50  27  40 S12       30.06F

$$




USA.gov is the U.S. government's official web portal to all federal, state and local government web resources and services.